This demonstration page uses our WeatherBlox Daily Observations layout. Learn more.

Left ArrowRight Arrow

39.95238, -75.16362

Hourly Observations for April 8, 2022

Temp ( °F °C ) Dew Point ( °F °C ) Humidity (%) Winds ( mph kmh ) Pressure ( in mb ) Visibility ( mi km ) Precip ( " mm )
12:16 am 00:16 Cloudy 52 11.1 47 8.3 83 83 W 10 17 29.55 1001 10 16 0.00 0.00
12:54 am 00:54 Cloudy 52 11.1 47 8.3 83 83 W 14 22 29.54 1001 10 16 0.00 0.00
1:06 am 01:06 Cloudy 51 10.6 47 8.3 86 86 W 15 24 29.54 1000 10 16 0.00 0.00
1:40 am 01:40 Mostly Cloudy 51 10.6 46 7.8 83 83 W 10 17 29.54 1000 10 16 0.00 0.00
1:54 am 01:54 Partly Cloudy 51 10.6 45 7.2 80 80 W 10 17 29.54 1000 10 16 0.00 0.00
2:54 am 02:54 Clear 50 10 44 6.7 80 80 W 9 15 29.57 1001 10 16 0.00 0.00
3:54 am 03:54 Mostly Clear 49 9.4 43 6.1 80 80 W 9 15 29.60 1002 10 16 0.00 0.00
4:54 am 04:54 Clear 46 7.8 41 5 83 83 WSW 7 11 29.62 1003 10 16 0.00 0.00
5:54 am 05:54 Mostly Clear 46 7.8 42 5.6 86 86 W 9 15 29.63 1003 10 16 0.00 0.00
6:54 am 06:54 Mostly Sunny 46 7.8 42 5.6 86 86 WSW 9 15 29.65 1004 10 16 0.00 0.00
7:54 am 07:54 Sunny 49 9.4 42 5.6 77 77 WSW 8 13 29.65 1004 10 16 0.00 0.00
8:54 am 08:54 Sunny 52 11.1 44 6.7 75 75 W 10 17 29.68 1005 10 16 0.00 0.00
9:54 am 09:54 Mostly Sunny 55 12.8 43 6.1 64 64 W 9 15 29.69 1005 10 16 0.00 0.00
10:54 am 10:54 Mostly Sunny 58 14.4 36 2.2 44 44 W 10 17 29.70 1006 10 16 0.00 0.00
11:54 am 11:54 Mostly Sunny 60 15.6 29 -1.7 31 31 NW 12 19 29.69 1005 10 16 0.00 0.00
12:54 pm 12:54 Mostly Sunny 60 15.6 32 0 35 35 SW 8 13 29.68 1005 10 16 0.00 0.00
1:54 pm 13:54 Mostly Sunny 61 16.1 31 -0.6 32 32 WSW 7 11 29.67 1005 10 16 0.00 0.00
2:54 pm 14:54 Partly Cloudy 62 16.7 33 0.6 34 34 WSW 9 15 29.66 1004 10 16 0.00 0.00
3:54 pm 15:54 Partly Cloudy 63 17.2 31 -0.6 30 30 SSW 9 15 29.66 1004 10 16 0.00 0.00
4:54 pm 16:54 Partly Cloudy 64 17.8 31 -0.6 29 29 SW 10 17 29.65 1004 10 16 0.00 0.00
5:54 pm 17:54 Partly Cloudy 63 17.2 30 -1.1 29 29 SSW 14 22 29.65 1004 10 16 0.00 0.00
6:54 pm 18:54 Mostly Sunny 62 16.7 32 0 32 32 SSW 9 15 29.65 1004 10 16 0.00 0.00
7:54 pm 19:54 Partly Cloudy 58 14.4 36 2.2 44 44 S 7 11 29.66 1005 10 16 0.00 0.00
8:54 pm 20:54 Partly Cloudy 55 12.8 38 3.3 53 53 SSE 8 13 29.67 1005 10 16 0.00 0.00
9:54 pm 21:54 Partly Cloudy 54 12.2 38 3.3 55 55 S 5 7 29.69 1005 10 16 0.00 0.00
10:54 pm 22:54 Mostly Cloudy 54 12.2 39 3.9 57 57 W 10 17 29.70 1006 10 16 0.00 0.00
11:54 pm 23:54 Cloudy 52 11.1 42 5.6 69 69 NNW 12 19 29.69 1005 10 16 0.00 0.00

Powered by AerisWeather